Regional Weather Roundup
Issued by NWS Cleveland, OH

Home | Current Version | Previous Version | Graphics & Text | Print | Product List | Glossary On
Versions: 1 2 3 4 5 6 7 8 9 10 11 12 13 14 15 16 17 18 19 20 21 22 23 24 25 26 27 28 29 30 31 32 33 34 35 36 37 38 39 40 41 42 43 44 45 46 47 48 49 50
000
ASUS41 KCLE 260002
RWRCLE
OHIO REGIONAL WEATHER ROUNDUP
NATIONAL WEATHER SERVICE CLEVELAND, OH
700 PM EST TUE NOV 25 2014

NOTE: "FAIR" INDICATES FEW OR NO CLOUDS BELOW 12,000 FEET WITH NO
SIGNIFICANT WEATHER AND/OR OBSTRUCTIONS TO VISIBILITY.

OHZ001>008-015>018-024>027-034-035-043-044-260100-
   NORTHWEST OHIO

CITY           SKY/WX    TMP DP  RH WIND       PRES   REMARKS
DEFIANCE       NOT AVBL
FINDLAY        CLOUDY    30  22  72 W9        30.17R WCI  22
TOLEDO EXPRESS CLOUDY    29  20  69 W7        30.17R WCI  22
TOLEDO EXEC    CLOUDY    30  20  66 NW9       30.19R WCI  22
LIMA           CLOUDY    29  23  78 W12       30.17R WCI  19
$$

OHZ009>014-019>023-028>033-038-089-260100-
   NORTHEAST OHIO

CITY           SKY/WX    TMP DP  RH WIND       PRES   REMARKS
CLE-HOPKINS    CLOUDY    32  26  78 W10       30.18R WCI  24
CLE-LAKEFRONT  CLOUDY    34  26  72 W16       30.16R WCI  24
CUY CO. ARPT   CLOUDY    36  28  75 W16       30.16R
LORAIN-ELYRIA  CLOUDY    31  25  78 W8        30.17R WCI  23
ASHTABULA      CLOUDY    34  27  75 W14       30.15R WCI  25
AKRON-CANTON   CLOUDY    36  27  69 NW10      30.14R
WOOSTER        CLOUDY    33  27  78 NW14      30.16R WCI  23
MANSFIELD      CLOUDY    30  25  81 W8        30.15R WCI  22
YOUNGSTOWN     CLOUDY    36  26  67 W6        30.13R
$$

OHZ042-051>053-060>062-070>072-077>081-260100-
  SOUTHWEST OHIO

CITY           SKY/WX    TMP DP  RH WIND       PRES   REMARKS
CINC-COVINGTON MOCLDY    37  26  64 NW8       30.15R
CINC-LUNKEN    PTCLDY    37  28  70 N6        30.18R
HAMILTON       PTCLDY    34  27  75 N3        30.18R
DAYTON         CLOUDY    33  27  78 N6        30.17R WCI  28
WRIGHT-PAT AFB CLOUDY    34  27  76 N9        30.17R WCI  27
DAYTON GENERAL PTCLDY    34  27  75 N6        30.16R WCI  29
WILMINGTON     PTCLDY    32  27  81 N6        30.15R WCI  26
$$

OHZ036-037-039>041-045>050-054>059-063>069-073>076-082>088-260100-
  CENTRAL AND SOUTHEAST OHIO

CITY           SKY/WX    TMP DP  RH WIND       PRES   REMARKS
COLUMBUS       MOCLDY    37  28  70 NW8       30.16R
OSU AIRPORT    CLOUDY    35  28  75 NW10      30.17R WCI  27
BOLTON FIELD   CLOUDY    34  28  80 W10       30.16R WCI  26
RICKENBACK AFB NOT AVBL
NEWARK         CLEAR     31  25  78 CALM      30.14R
MARION         CLOUDY    30  24  78 W12       30.18R WCI  20
LANCASTER      PTCLDY    27  23  85 CALM      30.15R
ZANESVILLE     CLEAR     33  24  69 CALM      30.15R
NEW PHILLY     CLEAR     37  25  61 W5        30.15R
$$



USA.gov is the U.S. government's official web portal to all federal, state and local government web resources and services.